owner,sensor,date,latitude,longitude,vertical_datum,sea_water_practical_salinity,qcFlag 
TCOON,ioos:station:TCOON:170:1,2011-08-01T00:00:00Z,27.2970,-97.4049,0.0,20.0,1111122 
TCOON,ioos:station:TCOON:170:1,2011-08-01T00:30:00Z,27.2970,-97.4049,0.0,19.9,1111122 
TCOON,ioos:station:TCOON:170:1,2011-08-01T01:00:00Z,27.2970,-97.4049,0.0,19.8,1111122 
TCOON,ioos:station:TCOON:170:1,2011-08-01T01:30:00Z,27.2970,-97.4049,0.0,19.7,1111122 
TCOON,ioos:station:TCOON:170:1,2011-08-01T02:00:00Z,27.2970,-97.4049,0.0,19.7,1111122 
TCOON,ioos:station:TCOON:170:1,2011-08-01T02:30:00Z,27.2970,-97.4049,0.0,19.6,1111122 
TCOON,ioos:station:TCOON:170:1,2011-08-01T04:00:00Z,27.2970,-97.4049,0.0,19.5,1111122 
TCOON,ioos:station:TCOON:170:1,2011-08-01T04:30:00Z,27.2970,-97.4049,0.0,19.4,1111122 
TCOON,ioos:station:TCOON:170:1,2011-08-01T05:00:00Z,27.2970,-97.4049,0.0,19.5,1111122 
TCOON,ioos:station:TCOON:170:1,2011-08-01T05:30:00Z,27.2970,-97.4049,0.0,19.3,1111122 
TCOON,ioos:station:TCOON:170:1,2011-08-01T06:00:00Z,27.2970,-97.4049,0.0,19.1,1111122 
TCOON,ioos:station:TCOON:170:1,2011-08-01T06:30:00Z,27.2970,-97.4049,0.0,19.1,1111122 
TCOON,ioos:station:TCOON:170:1,2011-08-01T07:00:00Z,27.2970,-97.4049,0.0,19.2,1111122 
TCOON,ioos:station:TCOON:170:1,2011-08-01T07:30:00Z,27.2970,-97.4049,0.0,19.1,1111122 
TCOON,ioos:station:TCOON:170:1,2011-08-01T08:00:00Z,27.2970,-97.4049,0.0,19.0,1111122 
TCOON,ioos:station:TCOON:170:1,2011-08-01T08:30:00Z,27.2970,-97.4049,0.0,19.0,1111122 
TCOON,ioos:station:TCOON:170:1,2011-08-01T09:00:00Z,27.2970,-97.4049,0.0,18.9,1111122 
TCOON,ioos:station:TCOON:170:1,2011-08-01T09:30:00Z,27.2970,-97.4049,0.0,18.8,1111122 
TCOON,ioos:station:TCOON:170:1,2011-08-01T10:00:00Z,27.2970,-97.4049,0.0,18.7,1111122 
TCOON,ioos:station:TCOON:170:1,2011-08-01T10:30:00Z,27.2970,-97.4049,0.0,18.6,1111122 
TCOON,ioos:station:TCOON:170:1,2011-08-01T11:00:00Z,27.2970,-97.4049,0.0,18.6,1111122 
TCOON,ioos:station:TCOON:170:1,2011-08-01T11:30:00Z,27.2970,-97.4049,0.0,18.5,1111122 
TCOON,ioos:station:TCOON:170:1,2011-08-01T12:00:00Z,27.2970,-97.4049,0.0,18.6,1111122 
TCOON,ioos:station:TCOON:170:1,2011-08-01T13:00:00Z,27.2970,-97.4049,0.0,18.5,1111122 
TCOON,ioos:station:TCOON:170:1,2011-08-01T13:30:00Z,27.2970,-97.4049,0.0,18.5,1111122 
TCOON,ioos:station:TCOON:170:1,2011-08-01T14:00:00Z,27.2970,-97.4049,0.0,18.5,1111122 
TCOON,ioos:station:TCOON:170:1,2011-08-01T14:30:00Z,27.2970,-97.4049,0.0,18.5,1111122 
TCOON,ioos:station:TCOON:170:1,2011-08-01T15:00:00Z,27.2970,-97.4049,0.0,18.5,1111122 
TCOON,ioos:station:TCOON:170:1,2011-08-01T15:30:00Z,27.2970,-97.4049,0.0,18.5,1111122 
TCOON,ioos:station:TCOON:170:1,2011-08-01T16:00:00Z,27.2970,-97.4049,0.0,18.5,1111122 
TCOON,ioos:station:TCOON:170:1,2011-08-01T16:30:00Z,27.2970,-97.4049,0.0,18.4,1111122 
TCOON,ioos:station:TCOON:170:1,2011-08-01T17:00:00Z,27.2970,-97.4049,0.0,18.3,1111122 
TCOON,ioos:station:TCOON:170:1,2011-08-01T17:30:00Z,27.2970,-97.4049,0.0,18.4,1111122 
TCOON,ioos:station:TCOON:170:1,2011-08-01T18:00:00Z,27.2970,-97.4049,0.0,18.3,1111122 
TCOON,ioos:station:TCOON:170:1,2011-08-01T18:30:00Z,27.2970,-97.4049,0.0,18.2,1111122 
TCOON,ioos:station:TCOON:170:1,2011-08-01T19:00:00Z,27.2970,-97.4049,0.0,18.2,1111122 
TCOON,ioos:station:TCOON:170:1,2011-08-01T19:30:00Z,27.2970,-97.4049,0.0,18.1,1111122 
TCOON,ioos:station:TCOON:170:1,2011-08-01T20:00:00Z,27.2970,-97.4049,0.0,18.2,1111122 
TCOON,ioos:station:TCOON:170:1,2011-08-01T20:30:00Z,27.2970,-97.4049,0.0,18.1,1111122 
TCOON,ioos:station:TCOON:170:1,2011-08-01T21:00:00Z,27.2970,-97.4049,0.0,18.0,1111122 
TCOON,ioos:station:TCOON:170:1,2011-08-01T21:30:00Z,27.2970,-97.4049,0.0,18.0,1111122 
TCOON,ioos:station:TCOON:170:1,2011-08-01T22:30:00Z,27.2970,-97.4049,0.0,17.8,1111122 
TCOON,ioos:station:TCOON:170:1,2011-08-01T23:00:00Z,27.2970,-97.4049,0.0,17.8,1111122 
TCOON,ioos:station:TCOON:170:1,2011-08-01T23:30:00Z,27.2970,-97.4049,0.0,17.8,1111122 
TCOON,ioos:station:TCOON:170:1,2011-08-02T00:00:00Z,27.2970,-97.4049,0.0,17.7,1111122 
TCOON,ioos:station:TCOON:170:1,2011-08-02T00:30:00Z,27.2970,-97.4049,0.0,17.6,1111122 
TCOON,ioos:station:TCOON:170:1,2011-08-02T02:30:00Z,27.2970,-97.4049,0.0,17.6,1111122 
TCOON,ioos:station:TCOON:170:1,2011-08-02T04:00:00Z,27.2970,-97.4049,0.0,17.5,1111122 
TCOON,ioos:station:TCOON:170:1,2011-08-02T06:00:00Z,27.2970,-97.4049,0.0,17.5,1111122 
TCOON,ioos:station:TCOON:170:1,2011-08-02T06:30:00Z,27.2970,-97.4049,0.0,17.4,1111122 
TCOON,ioos:station:TCOON:170:1,2011-08-02T07:00:00Z,27.2970,-97.4049,0.0,17.3,1111122 
TCOON,ioos:station:TCOON:170:1,2011-08-02T07:30:00Z,27.2970,-97.4049,0.0,17.4,1111122 
TCOON,ioos:station:TCOON:170:1,2011-08-02T08:00:00Z,27.2970,-97.4049,0.0,17.4,1111122 
TCOON,ioos:station:TCOON:170:1,2011-08-02T08:30:00Z,27.2970,-97.4049,0.0,17.4,1111122 
TCOON,ioos:station:TCOON:170:1,2011-08-02T09:00:00Z,27.2970,-97.4049,0.0,17.7,1111122 
TCOON,ioos:station:TCOON:170:1,2011-08-02T09:30:00Z,27.2970,-97.4049,0.0,17.5,1111122 
TCOON,ioos:station:TCOON:170:1,2011-08-02T10:00:00Z,27.2970,-97.4049,0.0,17.5,1111122 
TCOON,ioos:station:TCOON:170:1,2011-08-02T10:30:00Z,27.2970,-97.4049,0.0,17.4,1111122 
TCOON,ioos:station:TCOON:170:1,2011-08-02T11:00:00Z,27.2970,-97.4049,0.0,17.5,1111122 
TCOON,ioos:station:TCOON:170:1,2011-08-02T11:30:00Z,27.2970,-97.4049,0.0,17.4,1111122 
TCOON,ioos:station:TCOON:170:1,2011-08-02T12:30:00Z,27.2970,-97.4049,0.0,17.4,1111122 
TCOON,ioos:station:TCOON:170:1,2011-08-02T13:00:00Z,27.2970,-97.4049,0.0,17.3,1111122 
TCOON,ioos:station:TCOON:170:1,2011-08-02T13:30:00Z,27.2970,-97.4049,0.0,17.4,1111122 
TCOON,ioos:station:TCOON:170:1,2011-08-02T14:00:00Z,27.2970,-97.4049,0.0,17.3,1111122 
TCOON,ioos:station:TCOON:170:1,2011-08-02T14:30:00Z,27.2970,-97.4049,0.0,17.3,1111122 
TCOON,ioos:station:TCOON:170:1,2011-08-02T15:00:00Z,27.2970,-97.4049,0.0,17.3,1111122 
TCOON,ioos:station:TCOON:170:1,2011-08-02T15:30:00Z,27.2970,-97.4049,0.0,17.3,1111122 
TCOON,ioos:station:TCOON:170:1,2011-08-02T16:30:00Z,27.2970,-97.4049,0.0,17.1,1111122 
TCOON,ioos:station:TCOON:170:1,2011-08-02T17:00:00Z,27.2970,-97.4049,0.0,17.2,1111122 
TCOON,ioos:station:TCOON:170:1,2011-08-02T17:30:00Z,27.2970,-97.4049,0.0,17.2,1111122 
TCOON,ioos:station:TCOON:170:1,2011-08-02T18:00:00Z,27.2970,-97.4049,0.0,17.2,1111122 
TCOON,ioos:station:TCOON:170:1,2011-08-02T18:30:00Z,27.2970,-97.4049,0.0,17.0,1111122 
TCOON,ioos:station:TCOON:170:1,2011-08-02T19:00:00Z,27.2970,-97.4049,0.0,17.0,1111122 
TCOON,ioos:station:TCOON:170:1,2011-08-02T19:30:00Z,27.2970,-97.4049,0.0,17.0,1111122 
TCOON,ioos:station:TCOON:170:1,2011-08-02T20:00:00Z,27.2970,-97.4049,0.0,16.8,1111122 
TCOON,ioos:station:TCOON:170:1,2011-08-02T20:30:00Z,27.2970,-97.4049,0.0,16.9,1111122 
TCOON,ioos:station:TCOON:170:1,2011-08-02T21:00:00Z,27.2970,-97.4049,0.0,16.8,1111122 
TCOON,ioos:station:TCOON:170:1,2011-08-02T21:30:00Z,27.2970,-97.4049,0.0,16.7,1111122 
TCOON,ioos:station:TCOON:170:1,2011-08-02T22:00:00Z,27.2970,-97.4049,0.0,16.7,1111122 
TCOON,ioos:station:TCOON:170:1,2011-08-02T22:30:00Z,27.2970,-97.4049,0.0,16.8,1111122 
TCOON,ioos:station:TCOON:170:1,2011-08-02T23:00:00Z,27.2970,-97.4049,0.0,16.8,1111122 
TCOON,ioos:station:TCOON:170:1,2011-08-02T23:30:00Z,27.2970,-97.4049,0.0,16.7,1111122 
TCOON,ioos:station:TCOON:170:1,2011-08-03T00:00:00Z,27.2970,-97.4049,0.0,16.6,1111122 
TCOON,ioos:station:TCOON:170:1,2011-08-03T00:30:00Z,27.2970,-97.4049,0.0,16.7,1111122 
TCOON,ioos:station:TCOON:170:1,2011-08-03T01:00:00Z,27.2970,-97.4049,0.0,16.7,1111122 
TCOON,ioos:station:TCOON:170:1,2011-08-03T01:30:00Z,27.2970,-97.4049,0.0,16.7,1111122 
TCOON,ioos:station:TCOON:170:1,2011-08-03T02:00:00Z,27.2970,-97.4049,0.0,16.8,1111122 
TCOON,ioos:station:TCOON:170:1,2011-08-03T02:30:00Z,27.2970,-97.4049,0.0,16.8,1111122 
TCOON,ioos:station:TCOON:170:1,2011-08-03T03:00:00Z,27.2970,-97.4049,0.0,16.9,1111122 
TCOON,ioos:station:TCOON:170:1,2011-08-03T03:30:00Z,27.2970,-97.4049,0.0,16.7,1111122 
TCOON,ioos:station:TCOON:170:1,2011-08-03T04:00:00Z,27.2970,-97.4049,0.0,16.6,1111122 
TCOON,ioos:station:TCOON:170:1,2011-08-03T04:30:00Z,27.2970,-97.4049,0.0,16.7,1111122 
TCOON,ioos:station:TCOON:170:1,2011-08-03T05:30:00Z,27.2970,-97.4049,0.0,16.7,1111122 
TCOON,ioos:station:TCOON:170:1,2011-08-03T06:00:00Z,27.2970,-97.4049,0.0,16.7,1111122 
TCOON,ioos:station:TCOON:170:1,2011-08-03T06:30:00Z,27.2970,-97.4049,0.0,16.5,1111122 
TCOON,ioos:station:TCOON:170:1,2011-08-03T07:00:00Z,27.2970,-97.4049,0.0,16.6,1111122 
TCOON,ioos:station:TCOON:170:1,2011-08-03T07:30:00Z,27.2970,-97.4049,0.0,16.5,1111122 
TCOON,ioos:station:TCOON:170:1,2011-08-03T08:00:00Z,27.2970,-97.4049,0.0,16.6,1111122 
TCOON,ioos:station:TCOON:170:1,2011-08-03T10:00:00Z,27.2970,-97.4049,0.0,16.6,1111122 
TCOON,ioos:station:TCOON:170:1,2011-08-03T10:30:00Z,27.2970,-97.4049,0.0,16.6,1111122 
TCOON,ioos:station:TCOON:170:1,2011-08-03T11:30:00Z,27.2970,-97.4049,0.0,16.6,1111122 
TCOON,ioos:station:TCOON:170:1,2011-08-03T12:30:00Z,27.2970,-97.4049,0.0,16.6,1111122 
TCOON,ioos:station:TCOON:170:1,2011-08-03T13:30:00Z,27.2970,-97.4049,0.0,16.7,1111122 
TCOON,ioos:station:TCOON:170:1,2011-08-03T15:00:00Z,27.2970,-97.4049,0.0,16.6,1111122 
TCOON,ioos:station:TCOON:170:1,2011-08-04T17:00:00Z,27.2970,-97.4049,0.0,39.3,1111122 
TCOON,ioos:station:TCOON:170:1,2011-08-04T17:30:00Z,27.2970,-97.4049,0.0,39.3,1111122 
TCOON,ioos:station:TCOON:170:1,2011-08-04T18:00:00Z,27.2970,-97.4049,0.0,39.3,1111122 
TCOON,ioos:station:TCOON:170:1,2011-08-04T18:30:00Z,27.2970,-97.4049,0.0,39.1,1111122 
TCOON,ioos:station:TCOON:170:1,2011-08-04T19:00:00Z,27.2970,-97.4049,0.0,39.2,1111122 
TCOON,ioos:station:TCOON:170:1,2011-08-04T19:30:00Z,27.2970,-97.4049,0.0,39.1,1111122 
TCOON,ioos:station:TCOON:170:1,2011-08-04T20:00:00Z,27.2970,-97.4049,0.0,39.1,1111122 
TCOON,ioos:station:TCOON:170:1,2011-08-04T20:30:00Z,27.2970,-97.4049,0.0,39.2,1111122 
TCOON,ioos:station:TCOON:170:1,2011-08-04T21:00:00Z,27.2970,-97.4049,0.0,39.2,1111122 
TCOON,ioos:station:TCOON:170:1,2011-08-04T21:30:00Z,27.2970,-97.4049,0.0,39.3,1111122 
TCOON,ioos:station:TCOON:170:1,2011-08-04T22:00:00Z,27.2970,-97.4049,0.0,39.2,1111122 
TCOON,ioos:station:TCOON:170:1,2011-08-04T22:30:00Z,27.2970,-97.4049,0.0,39.4,1111122 
TCOON,ioos:station:TCOON:170:1,2011-08-04T23:00:00Z,27.2970,-97.4049,0.0,39.4,1111122 
TCOON,ioos:station:TCOON:170:1,2011-08-04T23:30:00Z,27.2970,-97.4049,0.0,39.3,1111122 
TCOON,ioos:station:TCOON:170:1,2011-08-05T00:00:00Z,27.2970,-97.4049,0.0,39.3,1111122 
TCOON,ioos:station:TCOON:170:1,2011-08-05T00:30:00Z,27.2970,-97.4049,0.0,39.4,1111122 
TCOON,ioos:station:TCOON:170:1,2011-08-05T01:00:00Z,27.2970,-97.4049,0.0,39.5,1111122 
TCOON,ioos:station:TCOON:170:1,2011-08-05T01:30:00Z,27.2970,-97.4049,0.0,39.4,1111122 
TCOON,ioos:station:TCOON:170:1,2011-08-05T02:00:00Z,27.2970,-97.4049,0.0,39.4,1111122 
TCOON,ioos:station:TCOON:170:1,2011-08-05T02:30:00Z,27.2970,-97.4049,0.0,39.4,1111122 
TCOON,ioos:station:TCOON:170:1,2011-08-05T03:30:00Z,27.2970,-97.4049,0.0,39.3,1111122 
TCOON,ioos:station:TCOON:170:1,2011-08-05T04:00:00Z,27.2970,-97.4049,0.0,39.3,1111122 
TCOON,ioos:station:TCOON:170:1,2011-08-05T05:00:00Z,27.2970,-97.4049,0.0,39.3,1111122 
TCOON,ioos:station:TCOON:170:1,2011-08-05T05:30:00Z,27.2970,-97.4049,0.0,39.3,1111122 
TCOON,ioos:station:TCOON:170:1,2011-08-05T06:00:00Z,27.2970,-97.4049,0.0,39.3,1111122 
TCOON,ioos:station:TCOON:170:1,2011-08-05T06:30:00Z,27.2970,-97.4049,0.0,39.3,1111122 
TCOON,ioos:station:TCOON:170:1,2011-08-05T07:00:00Z,27.2970,-97.4049,0.0,39.3,1111122 
TCOON,ioos:station:TCOON:170:1,2011-08-05T07:30:00Z,27.2970,-97.4049,0.0,39.3,1111122 
TCOON,ioos:station:TCOON:170:1,2011-08-05T08:00:00Z,27.2970,-97.4049,0.0,39.3,1111122 
TCOON,ioos:station:TCOON:170:1,2011-08-05T08:30:00Z,27.2970,-97.4049,0.0,39.3,1111122 
TCOON,ioos:station:TCOON:170:1,2011-08-05T09:00:00Z,27.2970,-97.4049,0.0,39.3,1111122 
TCOON,ioos:station:TCOON:170:1,2011-08-05T09:30:00Z,27.2970,-97.4049,0.0,39.3,1111122 
TCOON,ioos:station:TCOON:170:1,2011-08-05T10:00:00Z,27.2970,-97.4049,0.0,39.2,1111122 
TCOON,ioos:station:TCOON:170:1,2011-08-05T10:30:00Z,27.2970,-97.4049,0.0,39.2,1111122 
TCOON,ioos:station:TCOON:170:1,2011-08-05T11:00:00Z,27.2970,-97.4049,0.0,39.2,1111122 
TCOON,ioos:station:TCOON:170:1,2011-08-05T11:30:00Z,27.2970,-97.4049,0.0,39.1,1111122 
TCOON,ioos:station:TCOON:170:1,2011-08-05T12:00:00Z,27.2970,-97.4049,0.0,39.1,1111122 
TCOON,ioos:station:TCOON:170:1,2011-08-05T13:00:00Z,27.2970,-97.4049,0.0,39.0,1111122 
TCOON,ioos:station:TCOON:170:1,2011-08-05T13:30:00Z,27.2970,-97.4049,0.0,39.0,1111122 
TCOON,ioos:station:TCOON:170:1,2011-08-05T14:00:00Z,27.2970,-97.4049,0.0,39.0,1111122 
TCOON,ioos:station:TCOON:170:1,2011-08-05T19:00:00Z,27.2970,-97.4049,0.0,39.2,1111122 
TCOON,ioos:station:TCOON:170:1,2011-08-05T19:30:00Z,27.2970,-97.4049,0.0,39.2,1111122 
TCOON,ioos:station:TCOON:170:1,2011-08-05T20:00:00Z,27.2970,-97.4049,0.0,39.2,1111122 
TCOON,ioos:station:TCOON:170:1,2011-08-05T20:30:00Z,27.2970,-97.4049,0.0,39.2,1111122 
TCOON,ioos:station:TCOON:170:1,2011-08-05T21:00:00Z,27.2970,-97.4049,0.0,39.2,1111122 
TCOON,ioos:station:TCOON:170:1,2011-08-05T21:30:00Z,27.2970,-97.4049,0.0,39.2,1111122 
TCOON,ioos:station:TCOON:170:1,2011-08-05T22:00:00Z,27.2970,-97.4049,0.0,39.2,1111122 
TCOON,ioos:station:TCOON:170:1,2011-08-05T22:30:00Z,27.2970,-97.4049,0.0,39.3,1111122 
TCOON,ioos:station:TCOON:170:1,2011-08-05T23:00:00Z,27.2970,-97.4049,0.0,39.3,1111122 
TCOON,ioos:station:TCOON:170:1,2011-08-05T23:30:00Z,27.2970,-97.4049,0.0,39.5,1111122 
TCOON,ioos:station:TCOON:170:1,2011-08-06T00:00:00Z,27.2970,-97.4049,0.0,39.5,1111122 
TCOON,ioos:station:TCOON:170:1,2011-08-06T00:30:00Z,27.2970,-97.4049,0.0,39.5,1111122 
TCOON,ioos:station:TCOON:170:1,2011-08-06T01:00:00Z,27.2970,-97.4049,0.0,39.4,1111122 
TCOON,ioos:station:TCOON:170:1,2011-08-06T01:30:00Z,27.2970,-97.4049,0.0,39.4,1111122 
TCOON,ioos:station:TCOON:170:1,2011-08-06T02:00:00Z,27.2970,-97.4049,0.0,39.4,1111122 
TCOON,ioos:station:TCOON:170:1,2011-08-06T02:30:00Z,27.2970,-97.4049,0.0,39.3,1111122 
TCOON,ioos:station:TCOON:170:1,2011-08-06T03:00:00Z,27.2970,-97.4049,0.0,39.3,1111122 
TCOON,ioos:station:TCOON:170:1,2011-08-06T03:30:00Z,27.2970,-97.4049,0.0,39.3,1111122 
TCOON,ioos:station:TCOON:170:1,2011-08-06T04:00:00Z,27.2970,-97.4049,0.0,39.4,1111122 
TCOON,ioos:station:TCOON:170:1,2011-08-06T04:30:00Z,27.2970,-97.4049,0.0,39.4,1111122 
TCOON,ioos:station:TCOON:170:1,2011-08-06T05:00:00Z,27.2970,-97.4049,0.0,39.4,1111122 
TCOON,ioos:station:TCOON:170:1,2011-08-06T05:30:00Z,27.2970,-97.4049,0.0,39.4,1111122 
TCOON,ioos:station:TCOON:170:1,2011-08-06T06:00:00Z,27.2970,-97.4049,0.0,39.3,1111122 
TCOON,ioos:station:TCOON:170:1,2011-08-06T06:30:00Z,27.2970,-97.4049,0.0,39.3,1111122 
TCOON,ioos:station:TCOON:170:1,2011-08-06T07:00:00Z,27.2970,-97.4049,0.0,39.3,1111122 
TCOON,ioos:station:TCOON:170:1,2011-08-06T07:30:00Z,27.2970,-97.4049,0.0,39.3,1111122 
TCOON,ioos:station:TCOON:170:1,2011-08-06T08:00:00Z,27.2970,-97.4049,0.0,39.3,1111122 
TCOON,ioos:station:TCOON:170:1,2011-08-06T08:30:00Z,27.2970,-97.4049,0.0,39.3,1111122 
TCOON,ioos:station:TCOON:170:1,2011-08-06T09:00:00Z,27.2970,-97.4049,0.0,39.3,1111122 
TCOON,ioos:station:TCOON:170:1,2011-08-06T09:30:00Z,27.2970,-97.4049,0.0,39.3,1111122 
TCOON,ioos:station:TCOON:170:1,2011-08-06T10:00:00Z,27.2970,-97.4049,0.0,39.2,1111122 
TCOON,ioos:station:TCOON:170:1,2011-08-06T10:30:00Z,27.2970,-97.4049,0.0,39.2,1111122 
TCOON,ioos:station:TCOON:170:1,2011-08-06T11:00:00Z,27.2970,-97.4049,0.0,39.2,1111122 
TCOON,ioos:station:TCOON:170:1,2011-08-06T11:30:00Z,27.2970,-97.4049,0.0,39.2,1111122 
TCOON,ioos:station:TCOON:170:1,2011-08-06T12:30:00Z,27.2970,-97.4049,0.0,39.2,1111122 
TCOON,ioos:station:TCOON:170:1,2011-08-06T13:00:00Z,27.2970,-97.4049,0.0,39.2,1111122 
TCOON,ioos:station:TCOON:170:1,2011-08-06T13:30:00Z,27.2970,-97.4049,0.0,39.1,1111122 
TCOON,ioos:station:TCOON:170:1,2011-08-06T14:00:00Z,27.2970,-97.4049,0.0,39.2,1111122 
TCOON,ioos:station:TCOON:170:1,2011-08-06T14:30:00Z,27.2970,-97.4049,0.0,39.2,1111122 
TCOON,ioos:station:TCOON:170:1,2011-08-06T15:00:00Z,27.2970,-97.4049,0.0,39.2,1111122 
TCOON,ioos:station:TCOON:170:1,2011-08-06T15:30:00Z,27.2970,-97.4049,0.0,39.2,1111122 
TCOON,ioos:station:TCOON:170:1,2011-08-06T16:00:00Z,27.2970,-97.4049,0.0,39.3,1111122 
TCOON,ioos:station:TCOON:170:1,2011-08-06T16:30:00Z,27.2970,-97.4049,0.0,39.3,1111122 
TCOON,ioos:station:TCOON:170:1,2011-08-06T17:00:00Z,27.2970,-97.4049,0.0,39.4,1111122 
TCOON,ioos:station:TCOON:170:1,2011-08-06T17:30:00Z,27.2970,-97.4049,0.0,39.4,1111122 
TCOON,ioos:station:TCOON:170:1,2011-08-06T18:00:00Z,27.2970,-97.4049,0.0,39.4,1111122 
TCOON,ioos:station:TCOON:170:1,2011-08-06T19:00:00Z,27.2970,-97.4049,0.0,39.3,1111122 
TCOON,ioos:station:TCOON:170:1,2011-08-06T19:30:00Z,27.2970,-97.4049,0.0,39.3,1111122 
TCOON,ioos:station:TCOON:170:1,2011-08-06T20:00:00Z,27.2970,-97.4049,0.0,39.3,1111122 
TCOON,ioos:station:TCOON:170:1,2011-08-06T20:30:00Z,27.2970,-97.4049,0.0,39.3,1111122 
TCOON,ioos:station:TCOON:170:1,2011-08-06T21:00:00Z,27.2970,-97.4049,0.0,39.4,1111122 
TCOON,ioos:station:TCOON:170:1,2011-08-06T21:30:00Z,27.2970,-97.4049,0.0,39.5,1111122 
TCOON,ioos:station:TCOON:170:1,2011-08-06T22:00:00Z,27.2970,-97.4049,0.0,39.5,1111122 
TCOON,ioos:station:TCOON:170:1,2011-08-06T22:30:00Z,27.2970,-97.4049,0.0,39.6,1111122 
TCOON,ioos:station:TCOON:170:1,2011-08-06T23:00:00Z,27.2970,-97.4049,0.0,39.6,1111122 
TCOON,ioos:station:TCOON:170:1,2011-08-06T23:30:00Z,27.2970,-97.4049,0.0,39.7,1111122 
TCOON,ioos:station:TCOON:170:1,2011-08-07T00:00:00Z,27.2970,-97.4049,0.0,39.7,1111122 
TCOON,ioos:station:TCOON:170:1,2011-08-07T00:30:00Z,27.2970,-97.4049,0.0,39.7,1111122 
TCOON,ioos:station:TCOON:170:1,2011-08-07T01:00:00Z,27.2970,-97.4049,0.0,39.8,1111122 
TCOON,ioos:station:TCOON:170:1,2011-08-07T01:30:00Z,27.2970,-97.4049,0.0,39.7,1111122 
TCOON,ioos:station:TCOON:170:1,2011-08-07T02:00:00Z,27.2970,-97.4049,0.0,39.7,1111122 
TCOON,ioos:station:TCOON:170:1,2011-08-07T02:30:00Z,27.2970,-97.4049,0.0,39.7,1111122 
TCOON,ioos:station:TCOON:170:1,2011-08-07T03:00:00Z,27.2970,-97.4049,0.0,39.7,1111122 
TCOON,ioos:station:TCOON:170:1,2011-08-07T03:30:00Z,27.2970,-97.4049,0.0,39.6,1111122 
TCOON,ioos:station:TCOON:170:1,2011-08-07T04:00:00Z,27.2970,-97.4049,0.0,39.5,1111122 
TCOON,ioos:station:TCOON:170:1,2011-08-07T04:30:00Z,27.2970,-97.4049,0.0,39.6,1111122 
TCOON,ioos:station:TCOON:170:1,2011-08-07T05:00:00Z,27.2970,-97.4049,0.0,39.4,1111122 
TCOON,ioos:station:TCOON:170:1,2011-08-07T05:30:00Z,27.2970,-97.4049,0.0,39.4,1111122 
TCOON,ioos:station:TCOON:170:1,2011-08-07T06:00:00Z,27.2970,-97.4049,0.0,39.4,1111122 
TCOON,ioos:station:TCOON:170:1,2011-08-07T06:30:00Z,27.2970,-97.4049,0.0,39.3,1111122 
TCOON,ioos:station:TCOON:170:1,2011-08-07T07:00:00Z,27.2970,-97.4049,0.0,39.3,1111122 
TCOON,ioos:station:TCOON:170:1,2011-08-07T07:30:00Z,27.2970,-97.4049,0.0,39.3,1111122 
TCOON,ioos:station:TCOON:170:1,2011-08-07T08:00:00Z,27.2970,-97.4049,0.0,39.3,1111122 
TCOON,ioos:station:TCOON:170:1,2011-08-07T08:30:00Z,27.2970,-97.4049,0.0,39.3,1111122 
TCOON,ioos:station:TCOON:170:1,2011-08-07T09:00:00Z,27.2970,-97.4049,0.0,39.3,1111122 
TCOON,ioos:station:TCOON:170:1,2011-08-07T09:30:00Z,27.2970,-97.4049,0.0,39.2,1111122 
TCOON,ioos:station:TCOON:170:1,2011-08-07T10:00:00Z,27.2970,-97.4049,0.0,39.2,1111122 
TCOON,ioos:station:TCOON:170:1,2011-08-07T10:30:00Z,27.2970,-97.4049,0.0,39.3,1111122 
TCOON,ioos:station:TCOON:170:1,2011-08-07T11:00:00Z,27.2970,-97.4049,0.0,39.3,1111122 
TCOON,ioos:station:TCOON:170:1,2011-08-07T11:30:00Z,27.2970,-97.4049,0.0,39.2,1111122 
TCOON,ioos:station:TCOON:170:1,2011-08-07T12:00:00Z,27.2970,-97.4049,0.0,39.2,1111122 
TCOON,ioos:station:TCOON:170:1,2011-08-07T12:30:00Z,27.2970,-97.4049,0.0,39.2,1111122 
TCOON,ioos:station:TCOON:170:1,2011-08-07T13:30:00Z,27.2970,-97.4049,0.0,39.3,1111122 
TCOON,ioos:station:TCOON:170:1,2011-08-07T14:00:00Z,27.2970,-97.4049,0.0,39.3,1111122 
TCOON,ioos:station:TCOON:170:1,2011-08-07T15:00:00Z,27.2970,-97.4049,0.0,39.4,1111122 
TCOON,ioos:station:TCOON:170:1,2011-08-07T15:30:00Z,27.2970,-97.4049,0.0,39.4,1111122 
TCOON,ioos:station:TCOON:170:1,2011-08-07T16:00:00Z,27.2970,-97.4049,0.0,39.4,1111122 
TCOON,ioos:station:TCOON:170:1,2011-08-07T16:30:00Z,27.2970,-97.4049,0.0,39.4,1111122 
TCOON,ioos:station:TCOON:170:1,2011-08-07T17:00:00Z,27.2970,-97.4049,0.0,39.4,1111122 
TCOON,ioos:station:TCOON:170:1,2011-08-07T17:30:00Z,27.2970,-97.4049,0.0,39.5,1111122 
TCOON,ioos:station:TCOON:170:1,2011-08-07T18:00:00Z,27.2970,-97.4049,0.0,39.5,1111122 
TCOON,ioos:station:TCOON:170:1,2011-08-07T18:30:00Z,27.2970,-97.4049,0.0,39.5,1111122 
TCOON,ioos:station:TCOON:170:1,2011-08-07T19:00:00Z,27.2970,-97.4049,0.0,39.5,1111122 
TCOON,ioos:station:TCOON:170:1,2011-08-07T19:30:00Z,27.2970,-97.4049,0.0,39.5,1111122 
TCOON,ioos:station:TCOON:170:1,2011-08-07T20:00:00Z,27.2970,-97.4049,0.0,39.5,1111122 
TCOON,ioos:station:TCOON:170:1,2011-08-07T20:30:00Z,27.2970,-97.4049,0.0,39.6,1111122 
TCOON,ioos:station:TCOON:170:1,2011-08-07T21:00:00Z,27.2970,-97.4049,0.0,38.4,1111122 
TCOON,ioos:station:TCOON:170:1,2011-08-07T21:30:00Z,27.2970,-97.4049,0.0,38.7,1111122 
TCOON,ioos:station:TCOON:170:1,2011-08-07T22:00:00Z,27.2970,-97.4049,0.0,39.4,1111122 
TCOON,ioos:station:TCOON:170:1,2011-08-07T22:30:00Z,27.2970,-97.4049,0.0,39.5,1111122 
TCOON,ioos:station:TCOON:170:1,2011-08-07T23:00:00Z,27.2970,-97.4049,0.0,38.5,1111122 
TCOON,ioos:station:TCOON:170:1,2011-08-07T23:30:00Z,27.2970,-97.4049,0.0,39.4,1111122 
TCOON,ioos:station:TCOON:170:1,2011-08-08T00:00:00Z,27.2970,-97.4049,0.0,39.4,1111122 
TCOON,ioos:station:TCOON:170:1,2011-08-08T00:30:00Z,27.2970,-97.4049,0.0,39.1,1111122 
TCOON,ioos:station:TCOON:170:1,2011-08-08T01:00:00Z,27.2970,-97.4049,0.0,39.6,1111122 
TCOON,ioos:station:TCOON:170:1,2011-08-08T02:00:00Z,27.2970,-97.4049,0.0,38.7,1111122 
TCOON,ioos:station:TCOON:170:1,2011-08-08T02:30:00Z,27.2970,-97.4049,0.0,38.8,1111122 
TCOON,ioos:station:TCOON:170:1,2011-08-08T03:00:00Z,27.2970,-97.4049,0.0,38.9,1111122 
TCOON,ioos:station:TCOON:170:1,2011-08-08T03:30:00Z,27.2970,-97.4049,0.0,38.7,1111122 
TCOON,ioos:station:TCOON:170:1,2011-08-08T04:00:00Z,27.2970,-97.4049,0.0,39.4,1111122 
TCOON,ioos:station:TCOON:170:1,2011-08-08T04:30:00Z,27.2970,-97.4049,0.0,39.5,1111122 
TCOON,ioos:station:TCOON:170:1,2011-08-08T05:00:00Z,27.2970,-97.4049,0.0,38.6,1111122 
TCOON,ioos:station:TCOON:170:1,2011-08-08T05:30:00Z,27.2970,-97.4049,0.0,38.6,1111122 
TCOON,ioos:station:TCOON:170:1,2011-08-08T06:00:00Z,27.2970,-97.4049,0.0,38.7,1111122 
TCOON,ioos:station:TCOON:170:1,2011-08-08T06:30:00Z,27.2970,-97.4049,0.0,39.3,1111122 
TCOON,ioos:station:TCOON:170:1,2011-08-08T07:00:00Z,27.2970,-97.4049,0.0,39.0,1111122 
TCOON,ioos:station:TCOON:170:1,2011-08-08T08:00:00Z,27.2970,-97.4049,0.0,39.8,1111122 
TCOON,ioos:station:TCOON:170:1,2011-08-08T08:30:00Z,27.2970,-97.4049,0.0,39.8,1111122 
TCOON,ioos:station:TCOON:170:1,2011-08-08T09:00:00Z,27.2970,-97.4049,0.0,39.8,1111122 
TCOON,ioos:station:TCOON:170:1,2011-08-08T10:00:00Z,27.2970,-97.4049,0.0,39.7,1111122 
TCOON,ioos:station:TCOON:170:1,2011-08-08T10:30:00Z,27.2970,-97.4049,0.0,39.7,1111122 
TCOON,ioos:station:TCOON:170:1,2011-08-08T11:00:00Z,27.2970,-97.4049,0.0,39.7,1111122 
TCOON,ioos:station:TCOON:170:1,2011-08-08T11:30:00Z,27.2970,-97.4049,0.0,39.7,1111122 
TCOON,ioos:station:TCOON:170:1,2011-08-08T12:00:00Z,27.2970,-97.4049,0.0,39.7,1111122 
TCOON,ioos:station:TCOON:170:1,2011-08-08T12:30:00Z,27.2970,-97.4049,0.0,39.7,1111122 
TCOON,ioos:station:TCOON:170:1,2011-08-08T13:00:00Z,27.2970,-97.4049,0.0,39.7,1111122 
TCOON,ioos:station:TCOON:170:1,2011-08-08T13:30:00Z,27.2970,-97.4049,0.0,39.8,1111122 
TCOON,ioos:station:TCOON:170:1,2011-08-08T14:00:00Z,27.2970,-97.4049,0.0,39.8,1111122 
TCOON,ioos:station:TCOON:170:1,2011-08-08T14:30:00Z,27.2970,-97.4049,0.0,39.8,1111122 
TCOON,ioos:station:TCOON:170:1,2011-08-08T15:00:00Z,27.2970,-97.4049,0.0,39.8,1111122 